Temperature
20 20 20 19 16 16 18 20 21 22 23 24 25 24 23 23 22 21 23 23 23 23 22 22 22 21 20 20 19 19 18 17 17 17 17 17 17 17 17 17 17 17 17 17 17 17 17 17 17
20 20 20 19 16 17 19 20 21 23 24 25 25 24 23 23 23 23 23 23 23 23 22 22 22 21 20 20 19 19 18 17 17 17 17 17 17 17 17 17 17 17 16 17 17 17 17 17 17
20 20 19 16 15 17 20 21 22 23 24 25 24 24 22 21 22 22 22 23 23 22 22 22 22 21 21 20 20 19 19 18 17 17 17 17 17 17 17 17 17 17 16 17 16 17 17 17 17
19 20 19 17 17 19 20 21 21 22 24 25 24 21 21 21 21 21 21 21 21 22 22 21 21 21 21 21 20 20 19 19 18 18 17 17 17 17 17 17 16 16 16 16 16 16 17 17 17
19 19 15 16 17 19 20 21 22 22 22 24 23 21 20 21 21 21 21 21 21 21 21 21 21 21 21 21 21 20 20 19 19 18 17 17 17 17 17 16 16 16 16 16 16 16 16 16 16
19 17 16 16 18 19 20 23 22 22 22 23 23 21 20 20 21 22 22 21 21 21 21 21 21 20 20 21 21 20 20 19 19 19 18 17 17 17 17 17 16 16 16 16 16 16 16 16 16
18 14 16 17 17 19 21 23 22 21 22 23 23 20 20 20 20 21 21 21 21 20 20 20 20 19 19 19 20 20 20 19 19 19 19 18 18 18 17 17 17 16 16 16 16 16 16 16 16
20 15 17 17 18 20 22 23 23 23 22 22 22 19 19 19 20 20 21 21 20 20 19 19 19 18 18 18 19 19 19 19 19 19 19 19 18 18 18 17 17 16 16 16 16 16 16 16 15
19 15 15 18 19 20 21 21 22 23 22 20 19 19 18 18 19 20 20 20 19 18 18 18 18 18 17 17 17 18 18 19 19 19 19 19 19 18 18 17 16 16 16 16 16 15 15 15 15
18 14 16 19 21 21 21 21 21 22 20 19 18 18 18 18 18 19 19 19 18 18 18 18 17 17 17 17 16 16 17 17 17 17 18 18 19 18 18 17 16 16 16 16 16 15 15 15 15
17 16 17 19 21 21 20 21 21 20 19 19 18 18 17 17 18 17 17 17 16 16 17 17 17 17 17 16 16 15 15 15 15 16 17 17 18 18 18 17 16 16 15 15 15 15 15 15 15
17 18 19 20 21 21 20 21 20 20 20 20 19 18 17 17 17 16 16 16 16 16 16 17 16 17 17 16 15 14 14 14 14 15 15 15 16 15 15 16 15 15 15 15 15 15 15 15 15
17 18 20 20 21 21 21 20 20 19 20 19 18 18 17 17 17 16 15 15 16 16 16 15 15 15 15 15 15 14 14 13 13 13 13 14 14 14 14 13 14 14 14 14 14 14 14 14 14
18 19 19 20 20 20 19 19 19 19 19 18 18 17 17 17 16 16 15 15 15 16 16 16 16 16 15 15 14 14 14 13 13 12 12 12 13 13 13 13 13 14 14 14 14 14 14 14 14
19 17 17 18 19 19 19 18 17 20 18 18 17 17 17 16 16 16 15 15 15 15 15 15 15 15 15 15 15 14 14 13 13 12 12 12 12 12 12 13 13 14 14 14 14 14 14 13 13
17 17 16 18 18 18 18 16 17 19 18 17 17 17 17 16 16 16 15 15 15 14 14 15 15 15 15 15 15 14 14 13 12 12 12 11 11 11 12 12 12 13 13 13 13 13 14 14 14
15 15 16 17 18 17 17 16 17 18 17 17 17 17 16 16 15 15 15 15 14 14 14 14 14 14 14 13 13 13 13 13 12 12 11 11 11 11 11 12 12 12 13 13 13 13 13 13 13
16 15 16 16 18 17 16 15 15 16 16 16 17 17 16 15 15 15 15 14 14 14 14 14 13 13 13 12 12 12 12 12 12 11 11 11 11 11 11 11 12 12 12 12 12 12 12 12 12
16 15 14 15 16 16 15 15 15 15 15 14 15 16 16 15 15 14 14 14 14 14 14 13 13 12 12 12 11 11 11 12 11 11 11 11 11 11 11 11 11 11 11 11 11 11 11 11 12
16 15 14 15 15 15 15 14 15 15 14 15 15 16 16 15 14 14 14 14 14 14 13 13 13 12 11 11 11 11 11 11 11 11 11 11 11 11 11 11 11 11 11 11 11 11 11 11 11
15 15 14 13 13 14 14 14 14 15 14 15 15 16 16 15 14 13 14 14 14 13 13 12 12 11 10 10 10 10 10 11 11 11 11 11 11 11 10 10 10 10 11 11 11 11 10 10 10
14 14 14 13 13 12 14 12 15 15 14 12 13 14 16 14 14 13 13 13 13 13 12 11 11 11 10 10 10 10 9 9 10 10 10 10 10 10 10 10 10 10 10 10 10 10 9 9 9
14 13 13 13 12 11 11 12 12 14 14 12 11 13 15 14 13 13 13 13 13 12 11 11 11 10 10 10 9 9 9 9 9 9 9 9 9 9 9 9 9 9 9 9 9 9 9 9 8
14 13 12 10 10 11 11 11 11 12 14 12 11 13 14 14 13 13 13 13 13 12 11 10 10 10 10 9 9 9 9 9 9 9 9 9 9 9 9 9 9 9 9 9 9 9 9 8 8
12 12 10 11 11 12 11 11 11 12 11 10 10 13 14 13 13 13 13 13 12 11 11 10 10 10 10 9 9 9 9 9 9 9 9 9 8 8 8 8 8 8 8 8 8 8 8 8 8
12 11 11 10 10 11 12 10 11 11 10 10 12 13 13 12 13 13 13 12 11 11 11 10 10 10 10 9 9 9 8 8 8 8 8 8 8 8 8 8 8 8 8 8 8 8 8 8 8
11 11 11 10 9 8 10 11 12 11 11 10 10 11 12 12 12 12 12 12 12 11 11 10 10 10 9 9 8 8 8 8 8 8 8 8 8 7 7 7 7 7 7 8 8 8 8 8 8
10 11 6 9 8 7 9 9 11 12 12 11 11 11 12 12 12 12 12 12 12 11 11 10 10 9 9 8 8 8 8 8 7 7 7 7 7 7 7 7 7 7 7 7 7 7 7 7 7
10 9 9 8 8 9 9 10 11 12 11 10 10 12 13 13 13 12 12 12 12 11 10 10 9 9 9 8 7 7 7 7 7 7 7 7 7 7 7 6 6 6 7 7 7 7 7 7 7
9 9 8 7 8 7 8 10 12 10 10 10 10 12 12 12 12 11 11 12 11 11 10 9 9 9 9 8 7 7 6 6 6 6 6 6 6 6 5 5 6 6 6 6 6 6 7 6 6
Wind_Speed
7 4 3 3 4 2 3 3 1 1 1 1 1 4 4 2 2 3 4 5 6 8 10 13 15 15 14 13 12 11 9 9 9 6 5 6 7 7 7 8 9 10 10 10 8 8 8 7 6
5 3 4 4 3 1 3 4 3 3 4 2 1 4 4 2 2 1 1 6 9 8 11 13 15 15 14 14 13 12 9 9 8 7 5 5 5 7 7 8 9 10 11 11 10 9 9 8 7
3 3 3 3 3 4 3 4 3 2 2 2 2 3 4 3 4 2 4 8 9 8 11 15 18 17 17 16 15 13 11 10 9 8 7 5 5 6 7 8 9 10 11 11 12 11 10 8 7
2 4 3 2 3 4 5 6 6 4 1 2 5 5 4 2 2 5 4 5 8 8 9 14 19 19 18 18 17 16 14 12 11 10 8 7 6 5 6 8 8 9 11 12 13 12 11 10 8
4 3 2 1 5 4 5 4 4 3 1 2 3 4 3 4 7 7 6 2 8 8 8 12 19 19 19 18 18 17 15 14 12 11 10 8 7 5 4 5 8 9 11 13 13 12 11 10 9
3 3 2 2 5 5 6 5 3 3 2 2 3 5 2 6 8 9 9 7 2 8 7 11 17 18 18 18 17 16 16 15 14 13 11 9 8 7 6 5 8 10 12 13 15 13 12 11 9
3 3 3 4 5 6 5 4 3 5 2 0 3 5 1 7 9 7 9 11 8 4 4 5 10 14 16 16 16 15 15 15 14 13 12 11 9 8 7 5 8 11 12 14 15 14 14 12 10
5 4 2 4 4 5 3 1 2 4 2 3 4 3 2 5 8 6 10 11 11 9 4 1 2 6 10 12 13 13 13 13 12 11 10 8 7 6 5 6 7 10 11 13 15 15 15 14 12
4 2 3 5 4 4 3 2 4 2 5 4 3 2 2 5 6 9 8 9 10 9 7 4 4 5 6 8 10 11 11 11 11 9 9 8 6 6 7 9 10 10 12 13 14 16 16 14 12
3 4 7 5 3 2 2 2 4 2 2 2 1 2 3 4 6 8 8 9 9 8 8 8 4 5 5 5 6 8 9 9 9 8 8 8 8 9 10 11 13 13 12 12 14 15 15 12 9
5 6 5 5 3 3 3 2 2 2 4 5 4 3 2 4 6 9 9 6 6 5 7 8 8 3 5 5 3 4 6 6 7 8 9 9 8 8 8 8 9 9 9 8 9 9 10 9 8
4 8 7 7 4 4 4 3 3 5 6 7 8 7 5 6 6 7 7 5 4 6 7 8 8 7 3 3 2 2 2 3 3 7 9 5 4 4 4 2 4 5 5 4 5 4 6 8 10
6 7 8 7 6 6 4 5 4 6 7 7 7 7 7 6 5 4 5 4 4 5 6 6 7 8 7 6 3 2 3 4 4 5 6 5 3 4 4 5 3 4 6 4 5 5 6 7 7
4 6 7 6 6 5 6 5 5 8 8 8 9 9 9 8 7 5 5 4 4 4 5 6 7 7 7 6 4 2 1 2 3 3 4 4 3 3 3 4 4 5 5 6 6 6 6 6 6
3 7 10 7 6 6 5 7 10 8 9 9 9 9 9 8 8 8 6 4 3 3 5 7 6 6 6 5 4 4 3 1 1 3 4 4 3 3 3 3 3 3 5 5 4 6 5 5 6
4 4 5 7 1 3 5 10 11 7 11 12 11 10 10 9 9 9 9 7 5 4 5 6 6 7 6 5 4 3 3 2 1 1 2 3 2 3 3 2 4 2 1 3 4 4 5 7 7
4 3 5 7 2 2 5 9 9 4 9 11 11 11 10 8 7 7 8 8 6 5 4 6 7 7 6 5 4 3 4 3 2 1 1 1 1 3 2 2 3 2 2 2 3 4 5 7 9
3 4 6 6 6 4 9 13 11 5 8 12 11 11 11 11 10 8 8 8 7 6 6 6 7 7 6 5 4 3 4 4 3 3 3 3 2 2 2 2 3 2 2 3 3 5 5 6 8
3 5 8 8 6 6 12 13 14 10 11 13 12 12 13 11 7 7 8 9 8 7 7 6 6 7 5 3 3 3 4 3 3 4 5 5 4 4 3 3 4 3 1 2 2 2 4 4 3
3 6 8 8 7 7 12 15 16 13 12 16 16 14 12 9 7 8 7 7 7 5 4 5 6 6 4 2 1 1 2 2 2 3 4 4 5 5 5 4 4 3 2 3 2 2 3 3 4
5 4 6 9 9 7 11 11 8 8 5 8 11 10 12 13 12 9 7 7 7 5 2 3 4 5 5 5 3 3 3 3 4 4 4 5 4 4 3 5 5 5 3 3 3 2 3 4 3
4 3 6 9 10 5 5 10 2 4 6 7 11 11 12 11 11 11 9 8 7 5 4 1 2 4 4 6 5 4 2 2 3 3 5 6 5 4 4 5 4 2 1 2 3 4 3 4 4
5 5 7 7 5 5 4 6 7 5 8 10 12 11 11 13 13 12 11 10 9 7 6 4 1 1 2 4 4 3 2 2 3 3 5 6 6 5 4 4 3 3 1 1 1 2 3 2 3
4 5 6 2 2 3 5 5 8 5 6 9 9 9 11 11 11 11 9 8 7 6 5 4 3 4 3 2 3 3 4 5 4 5 5 5 5 5 5 3 1 2 3 3 3 3 3 4 4
6 6 6 7 2 5 2 4 9 8 7 9 12 12 10 9 10 10 9 8 7 7 7 6 6 6 4 4 4 4 5 5 6 6 4 4 4 4 7 6 4 3 4 5 5 5 5 5 5
3 2 1 4 6 9 7 8 7 6 7 8 7 3 8 8 9 9 10 9 9 9 8 8 7 4 3 5 6 5 4 3 3 4 3 4 4 5 6 7 7 7 7 7 7 6 7 6 7
2 3 2 2 5 7 7 7 9 5 7 8 5 4 7 6 6 7 9 10 10 9 8 7 6 2 1 4 5 6 5 4 4 6 5 5 5 6 8 8 8 9 8 8 7 6 8 7 7
3 2 3 2 4 7 10 8 9 12 5 5 3 2 4 5 7 9 10 9 9 7 5 4 4 4 3 5 5 5 7 8 8 8 8 8 8 8 10 10 10 10 9 9 8 7 8 7 7
0 1 3 5 6 9 16 11 4 4 6 10 10 9 8 7 8 10 11 10 9 7 6 5 4 6 7 7 7 9 10 10 10 9 9 9 9 10 10 10 10 10 9 9 8 8 9 9 8
5 6 6 4 9 9 11 17 9 10 12 13 11 9 6 6 8 9 13 12 7 7 7 5 6 7 8 7 7 8 8 8 9 9 9 10 10 10 10 10 10 10 10 9 9 10 10 9 9
Wind_Direction
315 347 95 67 58 51 272 275 265 237 150 207 197 96 123 137 157 189 236 191 158 146 166 177 185 187 187 185 184 176 182 186 175 171 172 180 185 186 195 199 203 200 192 186 180 175 152 150 154
337 32 56 67 86 58 276 256 188 196 192 162 85 98 99 36 321 151 212 176 161 155 164 171 182 185 187 187 186 182 185 184 175 177 174 171 180 190 199 204 205 202 198 193 186 180 158 156 159
348 63 72 82 125 187 227 250 224 226 233 138 73 76 84 328 327 317 268 167 162 165 167 173 178 183 187 189 190 190 191 190 185 188 190 191 190 191 203 213 208 206 205 199 187 175 168 166 164
39 44 52 99 240 232 222 233 230 154 250 147 120 92 98 200 290 310 303 161 169 179 173 175 178 182 187 191 194 193 194 193 190 191 191 188 188 194 209 213 213 209 206 200 188 180 178 174 170
53 74 57 336 255 248 251 234 248 121 266 283 114 132 107 320 320 312 353 196 189 190 182 178 181 184 189 194 197 196 197 198 196 193 193 195 196 204 222 228 211 204 204 199 193 191 187 182 178
50 72 107 250 265 283 273 241 238 108 20 344 104 127 142 320 341 343 12 8 211 176 171 176 185 187 191 196 200 200 200 203 205 202 200 203 205 210 221 236 220 207 206 201 197 198 197 187 185
132 114 200 221 268 279 241 209 178 132 128 59 107 137 238 339 343 354 30 33 38 77 135 170 185 189 192 197 203 205 205 206 209 211 211 214 217 222 221 238 227 212 216 213 208 205 203 191 187
137 125 222 232 232 249 244 241 202 145 157 51 60 127 264 319 325 15 39 38 41 44 51 352 266 209 191 192 202 207 209 208 211 216 223 231 233 232 229 252 242 222 222 220 214 210 205 196 188
116 93 234 232 230 264 339 341 322 29 77 52 59 116 319 322 345 36 33 31 31 30 22 8 241 227 216 197 196 200 207 208 207 210 217 227 229 231 248 261 256 243 231 221 213 209 202 192 184
127 181 227 232 254 258 325 349 309 317 86 109 81 30 20 23 42 54 50 39 28 18 2 0 338 238 214 205 197 195 197 198 201 207 214 219 226 234 243 255 261 253 236 217 208 205 196 182 177
177 213 237 267 248 229 232 249 296 272 254 203 174 169 109 62 50 51 48 42 30 15 9 1 353 333 215 198 181 187 188 195 208 219 223 227 235 243 250 256 262 247 228 209 203 202 188 174 182
227 253 247 264 252 222 221 230 251 207 226 183 171 157 136 93 64 55 52 40 26 23 13 9 8 18 56 130 150 173 173 191 209 221 225 222 239 255 254 241 245 212 201 201 193 182 179 179 194
225 257 260 256 247 230 215 225 241 230 203 177 160 131 131 119 106 85 81 67 45 27 14 15 28 40 55 73 81 131 200 212 216 220 220 205 210 254 271 261 238 216 193 189 196 190 186 191 204
259 279 285 275 246 231 213 230 225 238 188 182 173 167 163 155 146 114 83 69 52 27 9 6 28 40 54 56 51 40 179 207 208 211 216 196 190 219 251 273 244 226 204 197 191 193 194 202 210
289 310 313 287 257 220 195 249 235 217 179 192 196 184 174 170 156 149 144 126 89 42 10 9 13 27 35 36 34 28 21 45 230 220 222 243 262 259 259 270 270 252 218 202 194 199 197 209 215
344 355 315 301 350 206 178 261 264 212 180 204 208 201 188 185 174 166 161 141 105 63 26 12 12 16 13 9 6 357 353 2 336 271 238 255 310 314 278 268 261 261 208 207 220 216 219 220 222
6 306 285 298 285 196 227 258 272 208 190 213 214 210 202 194 191 182 160 135 111 85 43 18 13 12 4 355 335 331 328 307 289 309 304 297 324 10 7 328 286 296 292 251 240 229 222 238 240
291 298 285 277 291 259 252 259 271 242 220 228 220 212 203 194 197 178 143 124 100 70 43 18 5 5 358 356 352 341 316 305 310 295 274 274 272 305 327 335 341 351 314 286 272 255 235 236 245
258 266 274 275 287 278 266 267 271 245 230 238 228 214 206 200 187 158 145 134 111 63 35 19 8 356 355 1 5 346 325 325 321 308 298 297 306 319 318 302 288 289 279 279 279 265 263 261 247
303 303 303 298 335 324 282 268 256 240 228 227 220 214 202 184 170 174 153 120 104 93 46 18 12 4 4 350 314 273 298 325 340 348 354 336 305 293 295 305 309 316 316 308 287 216 223 230 213
331 315 308 300 315 305 311 285 242 260 242 242 229 206 188 183 174 170 154 140 125 109 79 22 8 15 22 18 6 2 358 351 356 353 348 343 336 328 307 289 284 299 334 342 345 312 284 277 233
304 314 291 291 310 311 7 298 225 271 293 267 240 211 191 181 172 169 163 159 150 154 168 141 19 17 20 30 36 25 354 313 308 308 317 325 341 351 349 341 329 303 328 339 333 334 311 299 294
267 288 276 273 264 289 241 244 292 320 293 277 251 223 202 187 177 173 174 168 158 162 180 192 204 341 7 20 27 14 325 275 283 297 318 321 322 333 343 352 349 317 272 251 277 305 303 276 279
324 319 302 7 74 268 230 223 285 275 285 295 282 239 212 189 181 178 176 157 155 169 197 207 214 243 256 302 324 326 294 289 300 309 317 314 307 307 312 324 321 259 262 263 254 248 248 245 244
22 6 345 344 326 258 255 263 256 271 292 281 276 244 214 189 180 173 168 165 174 194 212 213 213 240 263 292 294 293 291 288 294 291 285 302 301 298 308 319 310 285 266 260 256 251 249 243 239
326 105 197 279 275 289 286 253 261 273 303 316 310 237 170 183 187 182 182 182 194 205 209 209 212 237 302 303 294 285 284 281 279 274 278 276 271 281 285 290 288 282 274 266 259 253 258 249 247
317 230 214 266 289 288 267 283 298 306 344 356 6 110 146 185 215 218 209 204 204 206 203 201 186 166 320 321 303 296 317 330 316 305 298 289 287 282 286 289 287 285 281 268 257 249 258 258 258
183 278 342 294 280 273 278 283 272 285 315 304 284 177 176 232 245 237 233 226 216 205 187 170 140 114 51 14 360 4 10 6 358 356 347 340 330 328 327 318 306 297 289 280 267 257 262 259 258
183 249 233 250 249 264 280 274 243 268 284 273 254 230 222 237 255 257 252 235 212 182 156 134 100 79 59 40 31 36 30 25 23 19 6 354 350 349 343 330 320 308 296 287 279 270 269 265 263
187 213 200 230 277 269 271 274 301 292 289 286 266 238 243 255 263 261 254 238 201 163 137 123 102 85 66 51 43 41 37 28 19 5 354 349 347 342 333 329 325 321 316 308 293 282 275 262 258
Height
1517 1516 1516 1516 1520 1526 1524 1513 1504 1500 1496 1494 1494 1494 1496 1498 1501 1508 1501 1497 1498 1498 1497 1497 1496 1496 1497 1497 1498 1498 1499 1500 1501 1502 1502 1503 1503 1504 1505 1505 1506 1507 1507 1508 1509 1510 1510 1511 1513
1516 1515 1516 1516 1524 1531 1523 1510 1504 1497 1494 1493 1493 1495 1495 1497 1498 1498 1497 1497 1497 1498 1497 1497 1496 1496 1496 1496 1497 1497 1498 1499 1500 1500 1501 1502 1502 1503 1503 1504 1505 1505 1506 1507 1508 1509 1509 1510 1512
1514 1514 1516 1518 1526 1526 1518 1505 1498 1495 1493 1493 1493 1495 1497 1499 1499 1499 1498 1497 1497 1497 1496 1496 1496 1495 1495 1495 1495 1496 1496 1497 1498 1499 1500 1500 1500 1501 1501 1502 1503 1504 1505 1506 1507 1508 1508 1509 1511
1514 1515 1516 1520 1522 1515 1507 1500 1497 1494 1493 1492 1494 1497 1499 1500 1499 1499 1498 1497 1497 1497 1496 1495 1495 1495 1495 1494 1494 1495 1495 1495 1496 1497 1498 1499 1499 1500 1500 1501 1502 1502 1504 1505 1506 1507 1508 1509 1510
1514 1514 1520 1524 1519 1510 1502 1498 1496 1494 1493 1493 1493 1496 1498 1499 1499 1498 1497 1496 1496 1496 1495 1494 1494 1494 1494 1493 1493 1493 1493 1494 1494 1495 1496 1497 1498 1498 1499 1499 1500 1500 1501 1503 1504 1506 1507 1508 1509
1514 1515 1525 1525 1515 1505 1500 1497 1496 1492 1493 1493 1494 1495 1498 1498 1497 1496 1496 1495 1495 1495 1494 1493 1493 1493 1492 1492 1491 1491 1491 1492 1493 1493 1494 1495 1496 1497 1497 1498 1498 1499 1500 1501 1502 1503 1505 1506 1507
1514 1519 1522 1519 1514 1507 1497 1494 1492 1492 1493 1493 1494 1496 1497 1496 1495 1495 1494 1493 1493 1492 1492 1492 1491 1491 1490 1490 1489 1489 1490 1490 1491 1492 1492 1493 1494 1494 1495 1495 1496 1497 1498 1498 1499 1500 1502 1503 1504
1511 1515 1517 1514 1511 1504 1494 1493 1492 1490 1491 1493 1493 1495 1496 1496 1494 1494 1493 1492 1490 1489 1489 1488 1488 1488 1488 1488 1487 1487 1488 1488 1489 1489 1490 1491 1491 1492 1492 1493 1494 1494 1495 1496 1497 1498 1499 1500 1502
1510 1518 1520 1511 1505 1499 1493 1493 1492 1491 1490 1491 1493 1494 1495 1494 1493 1492 1491 1490 1489 1487 1486 1485 1484 1485 1485 1485 1485 1485 1485 1486 1486 1486 1487 1487 1488 1489 1489 1490 1491 1492 1492 1493 1493 1495 1496 1497 1499
1510 1519 1512 1501 1498 1496 1494 1494 1493 1492 1492 1493 1494 1494 1494 1494 1492 1490 1487 1487 1487 1486 1484 1483 1481 1481 1482 1482 1483 1483 1482 1483 1483 1483 1483 1484 1485 1486 1486 1487 1488 1489 1489 1490 1491 1492 1493 1494 1496
1507 1509 1502 1497 1495 1495 1494 1493 1493 1493 1492 1492 1492 1493 1493 1493 1492 1488 1487 1487 1487 1485 1483 1480 1480 1478 1478 1479 1480 1480 1480 1480 1480 1480 1480 1480 1481 1482 1482 1483 1485 1486 1487 1488 1489 1490 1490 1491 1493
1506 1501 1498 1495 1494 1494 1493 1492 1491 1490 1490 1489 1489 1490 1491 1490 1489 1487 1487 1487 1487 1485 1482 1479 1477 1477 1476 1477 1477 1478 1478 1478 1478 1477 1478 1478 1478 1479 1479 1480 1482 1483 1484 1485 1486 1487 1488 1489 1490
1502 1498 1494 1492 1491 1491 1490 1489 1489 1486 1487 1487 1488 1488 1488 1487 1487 1486 1486 1486 1486 1484 1482 1479 1478 1476 1475 1475 1475 1475 1475 1475 1475 1475 1475 1476 1476 1477 1477 1477 1478 1480 1482 1483 1484 1484 1485 1486 1487
1498 1496 1493 1491 1490 1489 1489 1487 1487 1482 1484 1484 1485 1485 1484 1485 1485 1485 1485 1485 1485 1484 1483 1481 1479 1478 1476 1475 1474 1473 1472 1472 1472 1472 1473 1473 1473 1474 1474 1475 1475 1477 1479 1480 1481 1481 1482 1483 1483
1496 1495 1492 1487 1485 1484 1486 1487 1482 1479 1481 1482 1483 1483 1482 1482 1482 1483 1484 1485 1485 1484 1483 1481 1480 1478 1476 1475 1473 1471 1470 1470 1469 1470 1470 1470 1470 1470 1471 1471 1473 1474 1475 1476 1477 1478 1479 1480 1480
1498 1500 1501 1488 1484 1484 1489 1491 1478 1477 1478 1478 1478 1478 1478 1477 1478 1479 1480 1481 1482 1482 1482 1481 1479 1478 1476 1474 1472 1471 1469 1468 1467 1467 1467 1467 1467 1467 1467 1467 1469 1471 1472 1472 1473 1474 1474 1475 1476
1506 1511 1505 1494 1485 1485 1488 1487 1475 1474 1475 1475 1474 1475 1475 1477 1478 1478 1478 1478 1480 1480 1480 1479 1477 1476 1474 1472 1470 1469 1469 1468 1466 1465 1464 1465 1465 1464 1464 1465 1466 1467 1468 1469 1470 1470 1471 1470 1471
1511 1509 1504 1500 1488 1485 1486 1483 1474 1474 1473 1470 1470 1470 1471 1473 1474 1476 1477 1478 1479 1479 1478 1477 1475 1473 1472 1470 1469 1468 1467 1467 1466 1464 1463 1462 1462 1462 1462 1462 1463 1464 1465 1466 1467 1467 1467 1466 1466
1505 1506 1506 1498 1488 1487 1484 1480 1474 1470 1469 1466 1465 1465 1465 1468 1472 1473 1473 1473 1475 1476 1477 1475 1473 1471 1469 1469 1468 1467 1467 1466 1464 1464 1463 1462 1462 1461 1460 1460 1461 1461 1461 1462 1461 1461 1461 1461 1462
1503 1505 1503 1493 1486 1485 1480 1474 1465 1461 1459 1457 1458 1459 1462 1466 1468 1468 1469 1470 1471 1472 1472 1472 1470 1468 1466 1466 1466 1466 1466 1465 1464 1463 1463 1462 1461 1459 1459 1459 1459 1459 1459 1458 1457 1457 1456 1456 1457
1504 1505 1504 1501 1492 1485 1482 1467 1460 1454 1454 1453 1453 1454 1457 1459 1461 1464 1467 1468 1469 1469 1469 1468 1466 1465 1464 1464 1463 1464 1464 1464 1463 1462 1461 1460 1459 1458 1457 1457 1457 1457 1457 1456 1455 1455 1453 1452 1452
1508 1501 1500 1497 1497 1497 1490 1488 1460 1456 1454 1452 1449 1448 1450 1455 1458 1459 1463 1466 1467 1468 1468 1468 1465 1465 1464 1462 1462 1461 1462 1462 1462 1461 1460 1459 1458 1456 1455 1455 1455 1455 1454 1454 1453 1453 1452 1451 1450
1502 1498 1496 1493 1496 1498 1492 1493 1471 1459 1456 1450 1444 1444 1447 1450 1452 1455 1459 1462 1463 1465 1466 1465 1464 1464 1462 1461 1461 1461 1461 1460 1459 1459 1458 1458 1457 1455 1453 1452 1452 1452 1452 1451 1450 1450 1450 1449 1447
1499 1498 1496 1498 1500 1502 1492 1492 1478 1463 1455 1450 1444 1442 1444 1448 1451 1454 1456 1459 1461 1462 1463 1462 1461 1462 1460 1459 1459 1459 1459 1458 1457 1455 1455 1455 1454 1453 1451 1449 1448 1448 1448 1447 1447 1447 1447 1445 1444
1503 1507 1512 1506 1500 1494 1489 1490 1476 1458 1454 1451 1444 1439 1442 1446 1449 1451 1453 1455 1458 1459 1460 1460 1459 1459 1458 1457 1456 1456 1455 1454 1453 1452 1451 1450 1451 1449 1447 1446 1445 1444 1444 1443 1442 1442 1442 1442 1440
1506 1510 1518 1519 1508 1492 1482 1487 1468 1456 1451 1447 1442 1438 1440 1444 1446 1448 1451 1454 1456 1456 1456 1457 1455 1454 1454 1455 1454 1452 1451 1449 1449 1448 1447 1447 1447 1445 1443 1442 1441 1440 1439 1438 1437 1437 1436 1436 1435
1511 1509 1507 1512 1507 1508 1487 1472 1461 1454 1452 1449 1444 1441 1442 1446 1448 1450 1451 1452 1452 1453 1453 1453 1450 1450 1451 1451 1450 1448 1447 1446 1445 1444 1443 1442 1442 1441 1439 1437 1436 1435 1434 1432 1431 1431 1430 1429 1428
1509 1507 1523 1514 1518 1509 1486 1481 1469 1456 1453 1450 1447 1445 1444 1447 1449 1449 1449 1449 1449 1449 1449 1449 1447 1447 1447 1446 1445 1442 1441 1441 1439 1438 1437 1437 1436 1435 1433 1431 1430 1429 1428 1427 1426 1425 1424 1422 1421
1509 1510 1510 1512 1508 1502 1490 1475 1461 1456 1454 1451 1447 1445 1443 1444 1446 1447 1446 1445 1445 1444 1445 1446 1444 1442 1442 1442 1440 1438 1437 1437 1435 1434 1433 1431 1429 1428 1427 1425 1424 1422 1421 1420 1418 1417 1416 1415 1414
1503 1505 1506 1512 1503 1500 1490 1474 1456 1454 1451 1447 1443 1440 1440 1440 1440 1441 1442 1441 1440 1439 1440 1441 1438 1437 1437 1437 1437 1435 1434 1431 1429 1427 1426 1424 1421 1420 1419 1418 1417 1415 1413 1412 1410 1409 1408 1407 1406